User: anonymous   Login
Location: Unspecified
(20.0000°S, 0.0000°E)
Time: 08:12:07
(UTC+00:00)
Language:

KKS-1 - Orbit

View from above orbital plane
View from above orbital plane
View from above satellite
View from above satellite

Ground track
Ground track

The orbit data is extracted from the following two-line orbital elements,

1 33499U 09002H   20226.88768410 +.00000065 +00000-0 +17568-4 0  9995
2 33499 098.3110 083.2170 0008052 307.7211 052.3267 14.75551094621059
Epoch (UTC): 13 August 2020 21:18:15
Eccentricity: 0.0008052
inclination: 98.3110°
perigee height: 638 km
apogee height: 649 km
right ascension of ascending node: 83.2170°
argument of perigee: 307.7211°
revolutions per day: 14.75551094
mean anomaly at epoch: 52.3267°
orbit number at epoch: 62105

The dashed part of the orbit path shows where the satellite is in the earth's shadow,  

DLR